Time,TemperatureF,DewpointF,PressureIn,WindDirection,WindDirectionDegrees,WindSpeedMPH,WindSpeedGustMPH,Humidity,HourlyPrecipIn,Conditions,Clouds,dailyrainin,SoftwareType,DateUTC
2013-03-25 00:02:00,73.0,70.0,29.76,SSW,204,0.0,0.0,89,0.00,,,0.02,,2013-03-25 04:02:00,
2013-03-25 00:12:00,73.0,70.0,29.76,SSW,204,0.0,0.0,89,0.00,,,0.02,,2013-03-25 04:12:00,
2013-03-25 00:22:00,73.0,70.0,29.76,SW,219,0.0,0.0,90,0.01,,,0.01,,2013-03-25 04:22:00,
2013-03-25 00:33:00,73.0,70.0,29.75,SSW,193,0.0,0.0,90,0.01,,,0.01,,2013-03-25 04:33:00,
2013-03-25 00:43:00,73.0,70.0,29.75,SSW,193,0.0,0.0,90,0.01,,,0.01,,2013-03-25 04:43:00,
2013-03-25 00:52:00,74.0,71.0,29.75,SW,215,0.0,0.0,90,0.01,,,0.01,,2013-03-25 04:52:00,
2013-03-25 01:03:00,74.0,71.0,29.75,SSW,208,0.0,0.0,90,0.01,,,0.01,,2013-03-25 05:03:00,
2013-03-25 01:12:00,74.0,71.0,29.75,SSW,208,0.0,0.0,90,0.01,,,0.01,,2013-03-25 05:12:00,
2013-03-25 01:22:00,75.0,72.0,29.75,West,260,5.0,7.0,89,0.01,,,0.01,,2013-03-25 05:22:00,
2013-03-25 01:32:00,75.0,72.0,29.75,WSW,255,4.0,4.0,89,0.01,,,0.01,,2013-03-25 05:32:00,
2013-03-25 01:42:00,75.0,72.0,29.75,WSW,255,4.0,4.0,89,0.01,,,0.01,,2013-03-25 05:42:00,
2013-03-25 01:53:00,75.0,72.0,29.75,SW,235,3.0,3.0,89,0.01,,,0.01,,2013-03-25 05:53:00,
2013-03-25 02:02:00,75.0,72.0,29.75,SW,228,4.0,4.0,89,0.01,,,0.01,,2013-03-25 06:02:00,
2013-03-25 02:12:00,75.0,72.0,29.75,SW,228,4.0,4.0,89,0.01,,,0.01,,2013-03-25 06:12:00,
2013-03-25 02:22:00,75.0,72.0,29.75,WSW,240,4.0,4.0,89,0.00,,,0.01,,2013-03-25 06:22:00,
2013-03-25 02:32:00,76.0,73.0,29.75,West,269,5.0,5.0,89,0.00,,,0.01,,2013-03-25 06:32:00,
2013-03-25 02:42:00,76.0,73.0,29.75,West,269,5.0,5.0,89,0.00,,,0.01,,2013-03-25 06:42:00,
2013-03-25 02:53:00,76.0,73.0,29.74,West,263,4.0,5.0,89,0.00,,,0.01,,2013-03-25 06:53:00,
2013-03-25 03:02:00,75.0,72.0,29.74,SW,231,4.0,4.0,89,0.00,,,0.01,,2013-03-25 07:02:00,
2013-03-25 03:12:00,75.0,72.0,29.74,SW,231,4.0,4.0,89,0.00,,,0.01,,2013-03-25 07:12:00,
2013-03-25 03:22:00,75.0,72.0,29.74,NW,319,7.0,7.0,89,0.00,,,0.01,,2013-03-25 07:22:00,
2013-03-25 03:32:00,75.0,71.0,29.74,NW,312,7.0,7.0,88,0.00,,,0.01,,2013-03-25 07:32:00,
2013-03-25 03:42:00,75.0,71.0,29.74,NW,312,7.0,7.0,88,0.00,,,0.01,,2013-03-25 07:42:00,
2013-03-25 03:53:00,75.0,72.0,29.74,WNW,290,5.0,6.0,89,0.00,,,0.01,,2013-03-25 07:53:00,
2013-03-25 04:03:00,75.0,72.0,29.74,West,273,5.0,6.0,89,0.00,,,0.01,,2013-03-25 08:03:00,
2013-03-25 04:12:00,75.0,72.0,29.74,West,273,5.0,6.0,89,0.00,,,0.01,,2013-03-25 08:12:00,
2013-03-25 04:23:00,75.0,72.0,29.73,West,277,4.0,4.0,90,0.00,,,0.01,,2013-03-25 08:23:00,
2013-03-25 04:32:00,75.0,72.0,29.74,WSW,253,6.0,6.0,91,0.00,,,0.01,,2013-03-25 08:32:00,
2013-03-25 04:43:00,75.0,72.0,29.74,WSW,253,6.0,6.0,91,0.00,,,0.01,,2013-03-25 08:43:00,
2013-03-25 04:52:00,75.0,72.0,29.73,West,262,4.0,4.0,91,0.00,,,0.01,,2013-03-25 08:52:00,
2013-03-25 05:02:00,75.0,72.0,29.74,West,278,5.0,5.0,90,0.00,,,0.01,,2013-03-25 09:02:00,
2013-03-25 05:12:00,75.0,72.0,29.74,West,278,5.0,5.0,90,0.00,,,0.01,,2013-03-25 09:12:00,
2013-03-25 05:22:00,75.0,72.0,29.74,NW,311,4.0,4.0,90,0.00,,,0.01,,2013-03-25 09:22:00,
2013-03-25 05:33:00,75.0,72.0,29.74,NW,326,2.0,2.0,90,0.00,,,0.01,,2013-03-25 09:33:00,
2013-03-25 05:43:00,75.0,72.0,29.74,NW,326,2.0,2.0,90,0.00,,,0.01,,2013-03-25 09:43:00,
2013-03-25 05:53:00,75.0,72.0,29.74,NNW,336,4.0,6.0,90,0.00,,,0.01,,2013-03-25 09:53:00,
2013-03-25 06:03:00,74.0,71.0,29.74,NNW,347,5.0,5.0,89,0.00,,,0.01,,2013-03-25 10:03:00,
2013-03-25 06:12:00,74.0,71.0,29.74,NNW,347,5.0,5.0,89,0.00,,,0.01,,2013-03-25 10:12:00,
2013-03-25 06:22:00,74.0,71.0,29.74,West,264,1.0,1.0,89,0.00,,,0.01,,2013-03-25 10:22:00,
2013-03-25 06:33:00,74.0,71.0,29.74,WNW,285,0.0,2.0,89,0.00,,,0.01,,2013-03-25 10:33:00,
2013-03-25 06:42:00,74.0,71.0,29.74,WNW,285,0.0,2.0,89,0.00,,,0.01,,2013-03-25 10:42:00,
2013-03-25 06:54:00,73.0,70.0,29.74,West,274,0.0,0.0,90,0.00,,,0.01,,2013-03-25 10:54:00,
2013-03-25 07:03:00,73.0,70.0,29.74,WNW,297,0.0,0.0,90,0.00,,,0.01,,2013-03-25 11:03:00,
2013-03-25 07:12:00,73.0,70.0,29.74,WNW,297,0.0,0.0,90,0.00,,,0.01,,2013-03-25 11:12:00,
2013-03-25 07:23:00,73.0,70.0,29.74,WNW,297,0.0,0.0,90,0.00,,,0.01,,2013-03-25 11:23:00,
2013-03-25 07:32:00,73.0,70.0,29.76,WNW,297,0.0,0.0,91,0.00,,,0.01,,2013-03-25 11:32:00,
2013-03-25 07:42:00,73.0,70.0,29.76,WNW,297,0.0,0.0,91,0.00,,,0.01,,2013-03-25 11:42:00,
2013-03-25 07:53:00,72.0,68.0,29.77,NNW,328,1.0,2.0,86,0.00,,,0.01,,2013-03-25 11:53:00,
2013-03-25 08:02:00,72.0,67.0,29.77,NW,312,3.0,4.0,85,0.00,,,0.01,,2013-03-25 12:02:00,
2013-03-25 08:13:00,72.0,67.0,29.77,NW,312,3.0,4.0,85,0.00,,,0.01,,2013-03-25 12:13:00,
2013-03-25 08:23:00,73.0,69.0,29.78,West,280,3.0,3.0,86,0.00,,,0.01,,2013-03-25 12:23:00,
2013-03-25 08:32:00,72.0,68.0,29.79,NW,314,2.0,3.0,87,0.00,,,0.01,,2013-03-25 12:32:00,
2013-03-25 08:42:00,72.0,68.0,29.79,NW,314,2.0,3.0,87,0.00,,,0.01,,2013-03-25 12:42:00,
2013-03-25 08:53:00,72.0,67.0,29.82,NW,321,5.0,5.0,85,0.00,,,0.01,,2013-03-25 12:53:00,
2013-03-25 09:03:00,72.0,65.0,29.83,NNW,333,6.0,6.0,80,0.00,,,0.01,,2013-03-25 13:03:00,
2013-03-25 09:13:00,72.0,65.0,29.83,NNW,333,6.0,6.0,80,0.00,,,0.01,,2013-03-25 13:13:00,
2013-03-25 09:23:00,72.0,66.0,29.84,WNW,295,2.0,2.0,81,0.00,,,0.01,,2013-03-25 13:23:00,
2013-03-25 09:32:00,72.0,65.0,29.84,North,6,6.0,8.0,80,0.00,,,0.01,,2013-03-25 13:32:00,
2013-03-25 09:43:00,72.0,65.0,29.84,North,6,6.0,8.0,80,0.00,,,0.01,,2013-03-25 13:43:00,
2013-03-25 09:52:00,72.0,65.0,29.84,North,7,5.0,5.0,79,0.00,,,0.01,,2013-03-25 13:52:00,
2013-03-25 10:03:00,73.0,65.0,29.85,NW,307,6.0,6.0,77,0.00,,,0.01,,2013-03-25 14:03:00,
2013-03-25 10:12:00,73.0,65.0,29.85,NW,307,6.0,6.0,77,0.00,,,0.01,,2013-03-25 14:12:00,
2013-03-25 10:23:00,72.0,64.0,29.85,NW,322,6.0,6.0,76,0.00,,,0.01,,2013-03-25 14:23:00,
2013-03-25 10:32:00,72.0,62.0,29.85,NNW,329,5.0,5.0,72,0.00,,,0.01,,2013-03-25 14:32:00,
2013-03-25 10:42:00,72.0,62.0,29.85,NNW,329,5.0,5.0,72,0.00,,,0.01,,2013-03-25 14:42:00,
2013-03-25 10:53:00,72.0,62.0,29.85,NW,305,6.0,6.0,72,0.00,,,0.01,,2013-03-25 14:53:00,
2013-03-25 11:03:00,73.0,63.0,29.86,North,359,7.0,8.0,72,0.00,,,0.01,,2013-03-25 15:03:00,
2013-03-25 11:13:00,73.0,63.0,29.86,North,359,7.0,8.0,72,0.00,,,0.01,,2013-03-25 15:13:00,
2013-03-25 11:23:00,73.0,63.0,29.86,NNW,342,8.0,8.0,72,0.00,,,0.01,,2013-03-25 15:23:00,
2013-03-25 11:33:00,74.0,63.0,29.86,NNE,28,8.0,8.0,69,0.00,,,0.01,,2013-03-25 15:33:00,
2013-03-25 11:42:00,74.0,63.0,29.86,NNE,28,8.0,8.0,69,0.00,,,0.01,,2013-03-25 15:42:00,
2013-03-25 11:53:00,73.0,62.0,29.86,WNW,287,7.0,7.0,69,0.00,,,0.01,,2013-03-25 15:53:00,
2013-03-25 12:03:00,74.0,60.0,29.86,NW,312,8.0,8.0,61,0.00,,,0.01,,2013-03-25 16:03:00,
2013-03-25 12:12:00,74.0,60.0,29.86,NW,312,8.0,8.0,61,0.00,,,0.01,,2013-03-25 16:12:00,
2013-03-25 12:23:00,74.0,60.0,29.86,NW,312,8.0,8.0,61,0.00,,,0.01,,2013-03-25 16:23:00,
2013-03-25 12:33:00,75.0,61.0,29.87,NNW,343,6.0,7.0,61,0.00,,,0.01,,2013-03-25 16:33:00,
2013-03-25 12:43:00,75.0,61.0,29.87,NNW,343,6.0,7.0,61,0.00,,,0.01,,2013-03-25 16:43:00,
2013-03-25 12:52:00,75.0,60.0,29.87,NW,308,11.0,11.0,59,0.00,,,0.01,,2013-03-25 16:52:00,
2013-03-25 13:03:00,76.0,55.0,29.87,West,260,4.0,6.0,48,0.00,,,0.01,,2013-03-25 17:03:00,
2013-03-25 13:12:00,76.0,55.0,29.87,West,260,4.0,6.0,48,0.00,,,0.01,,2013-03-25 17:12:00,
2013-03-25 13:23:00,76.0,54.0,29.86,NNW,339,6.0,6.0,46,0.00,,,0.01,,2013-03-25 17:23:00,
2013-03-25 13:33:00,76.0,53.0,29.86,NW,315,8.0,10.0,45,0.00,,,0.01,,2013-03-25 17:33:00,
2013-03-25 13:42:00,76.0,53.0,29.86,NW,315,8.0,10.0,45,0.00,,,0.01,,2013-03-25 17:42:00,
2013-03-25 13:52:00,76.0,53.0,29.86,NNW,345,6.0,6.0,45,0.00,,,0.01,,2013-03-25 17:52:00,
2013-03-25 14:03:00,77.0,55.0,29.85,WNW,297,9.0,12.0,47,0.00,,,0.01,,2013-03-25 18:03:00,
2013-03-25 14:13:00,77.0,55.0,29.85,WNW,297,9.0,12.0,47,0.00,,,0.01,,2013-03-25 18:13:00,
2013-03-25 14:23:00,76.0,55.0,29.85,North,357,6.0,6.0,49,0.00,,,0.01,,2013-03-25 18:23:00,
2013-03-25 14:33:00,77.0,55.0,29.85,West,260,4.0,7.0,46,0.00,,,0.01,,2013-03-25 18:33:00,
2013-03-25 14:43:00,77.0,55.0,29.85,West,260,4.0,7.0,46,0.00,,,0.01,,2013-03-25 18:43:00,
2013-03-25 14:53:00,76.0,54.0,29.85,NW,326,6.0,7.0,46,0.00,,,0.01,,2013-03-25 18:53:00,
2013-03-25 15:03:00,77.0,55.0,29.85,WNW,285,6.0,6.0,47,0.00,,,0.01,,2013-03-25 19:03:00,
2013-03-25 15:13:00,77.0,55.0,29.85,WNW,285,6.0,6.0,47,0.00,,,0.01,,2013-03-25 19:13:00,
2013-03-25 15:23:00,77.0,54.0,29.85,NW,305,8.0,8.0,45,0.00,,,0.01,,2013-03-25 19:23:00,
2013-03-25 15:33:00,77.0,49.0,29.85,NNW,342,8.0,8.0,38,0.00,,,0.01,,2013-03-25 19:33:00,
2013-03-25 15:43:00,77.0,49.0,29.85,NNW,342,8.0,8.0,38,0.00,,,0.01,,2013-03-25 19:43:00,
2013-03-25 15:53:00,78.0,51.0,29.84,WNW,284,9.0,9.0,39,0.00,,,0.01,,2013-03-25 19:53:00,
2013-03-25 16:02:00,77.0,51.0,29.83,NNW,340,6.0,6.0,41,0.00,,,0.01,,2013-03-25 20:02:00,
2013-03-25 16:12:00,77.0,51.0,29.83,NNW,340,6.0,6.0,41,0.00,,,0.01,,2013-03-25 20:12:00,
2013-03-25 16:22:00,78.0,52.0,29.83,WNW,290,6.0,8.0,41,0.00,,,0.01,,2013-03-25 20:22:00,
2013-03-25 16:32:00,76.0,52.0,29.83,WNW,288,8.0,11.0,44,0.00,,,0.01,,2013-03-25 20:32:00,
2013-03-25 16:42:00,76.0,52.0,29.83,WNW,288,8.0,11.0,44,0.00,,,0.01,,2013-03-25 20:42:00,
2013-03-25 16:52:00,76.0,52.0,29.83,NNE,15,6.0,9.0,43,0.00,,,0.01,,2013-03-25 20:52:00,
2013-03-25 17:03:00,76.0,52.0,29.83,NW,308,7.0,8.0,43,0.00,,,0.01,,2013-03-25 21:03:00,
2013-03-25 17:12:00,76.0,52.0,29.83,NW,308,7.0,8.0,43,0.00,,,0.01,,2013-03-25 21:12:00,
2013-03-25 17:22:00,76.0,52.0,29.83,WNW,298,5.0,7.0,43,0.00,,,0.01,,2013-03-25 21:22:00,
2013-03-25 17:33:00,75.0,52.0,29.84,WNW,301,6.0,8.0,44,0.00,,,0.01,,2013-03-25 21:33:00,
2013-03-25 17:43:00,75.0,52.0,29.84,WNW,301,6.0,8.0,44,0.00,,,0.01,,2013-03-25 21:43:00,
2013-03-25 17:52:00,75.0,45.0,29.85,WNW,295,6.0,6.0,35,0.00,,,0.01,,2013-03-25 21:52:00,
2013-03-25 18:03:00,75.0,45.0,29.85,North,4,4.0,4.0,35,0.00,,,0.01,,2013-03-25 22:03:00,
2013-03-25 18:12:00,75.0,45.0,29.85,North,4,4.0,4.0,35,0.00,,,0.01,,2013-03-25 22:12:00,
2013-03-25 18:23:00,75.0,48.0,29.85,North,359,5.0,6.0,38,0.00,,,0.01,,2013-03-25 22:23:00,
2013-03-25 18:33:00,75.0,47.0,29.86,NW,322,4.0,10.0,37,0.00,,,0.01,,2013-03-25 22:33:00,
2013-03-25 18:42:00,75.0,47.0,29.86,NW,322,4.0,10.0,37,0.00,,,0.01,,2013-03-25 22:42:00,
2013-03-25 18:52:00,74.0,47.0,29.87,NNW,330,6.0,6.0,38,0.00,,,0.01,,2013-03-25 22:52:00,
2013-03-25 19:03:00,74.0,47.0,29.87,North,359,8.0,8.0,38,0.00,,,0.01,,2013-03-25 23:03:00,
2013-03-25 19:12:00,74.0,47.0,29.87,North,359,8.0,8.0,38,0.00,,,0.01,,2013-03-25 23:12:00,
2013-03-25 19:23:00,74.0,47.0,29.88,North,0,7.0,7.0,38,0.00,,,0.01,,2013-03-25 23:23:00,
2013-03-25 19:32:00,74.0,47.0,29.88,NNW,340,4.0,4.0,38,0.00,,,0.01,,2013-03-25 23:32:00,
2013-03-25 19:43:00,74.0,47.0,29.88,NNW,340,4.0,4.0,38,0.00,,,0.01,,2013-03-25 23:43:00,
2013-03-25 19:53:00,73.0,48.0,29.89,NNW,346,5.0,7.0,41,0.00,,,0.01,,2013-03-25 23:53:00,
2013-03-25 20:02:00,73.0,49.0,29.89,North,8,3.0,3.0,42,0.00,,,0.01,,2013-03-26 00:02:00,
2013-03-25 20:12:00,73.0,49.0,29.89,North,8,3.0,3.0,42,0.00,,,0.01,,2013-03-26 00:12:00,
2013-03-25 20:22:00,73.0,49.0,29.90,NNW,343,6.0,6.0,42,0.00,,,0.01,,2013-03-26 00:22:00,
2013-03-25 20:32:00,72.0,45.0,29.91,NW,311,5.0,5.0,38,0.00,,,0.01,,2013-03-26 00:32:00,
2013-03-25 20:43:00,72.0,45.0,29.91,NW,311,5.0,5.0,38,0.00,,,0.01,,2013-03-26 00:43:00,
2013-03-25 20:52:00,72.0,45.0,29.91,WNW,295,4.0,9.0,38,0.00,,,0.01,,2013-03-26 00:52:00,
2013-03-25 21:02:00,71.0,45.0,29.92,North,359,2.0,2.0,40,0.00,,,0.01,,2013-03-26 01:02:00,
2013-03-25 21:12:00,71.0,45.0,29.92,North,359,2.0,2.0,40,0.00,,,0.01,,2013-03-26 01:12:00,
2013-03-25 21:23:00,71.0,46.0,29.92,NW,325,2.0,2.0,41,0.00,,,0.01,,2013-03-26 01:23:00,
2013-03-25 21:32:00,70.0,44.0,29.93,North,357,4.0,4.0,39,0.00,,,0.01,,2013-03-26 01:32:00,
2013-03-25 21:42:00,70.0,44.0,29.93,North,357,4.0,4.0,39,0.00,,,0.01,,2013-03-26 01:42:00,
2013-03-25 21:53:00,69.0,44.0,29.93,NNW,328,6.0,6.0,40,0.00,,,0.01,,2013-03-26 01:53:00,
2013-03-25 22:02:00,69.0,45.0,29.93,North,359,2.0,3.0,42,0.00,,,0.01,,2013-03-26 02:02:00,
2013-03-25 22:12:00,69.0,45.0,29.93,North,359,2.0,3.0,42,0.00,,,0.01,,2013-03-26 02:12:00,
2013-03-25 22:22:00,68.0,45.0,29.94,NNW,343,3.0,4.0,43,0.00,,,0.01,,2013-03-26 02:22:00,
2013-03-25 22:32:00,68.0,46.0,29.95,NW,323,3.0,4.0,45,0.00,,,0.01,,2013-03-26 02:32:00,
2013-03-25 22:42:00,68.0,46.0,29.95,NW,323,3.0,4.0,45,0.00,,,0.01,,2013-03-26 02:42:00,
2013-03-25 22:52:00,67.0,46.0,29.95,NW,318,2.0,5.0,47,0.00,,,0.01,,2013-03-26 02:52:00,
2013-03-25 23:02:00,67.0,46.0,29.96,North,0,6.0,6.0,46,0.00,,,0.01,,2013-03-26 03:02:00,
2013-03-25 23:12:00,67.0,46.0,29.96,North,0,6.0,6.0,46,0.00,,,0.01,,2013-03-26 03:12:00,
2013-03-25 23:22:00,67.0,46.0,29.96,NW,318,6.0,6.0,47,0.00,,,0.01,,2013-03-26 03:22:00,
2013-03-25 23:34:00,66.0,47.0,29.96,WNW,295,5.0,5.0,50,0.00,,,0.01,,2013-03-26 03:34:00,
2013-03-25 23:42:00,66.0,47.0,29.96,WNW,295,5.0,5.0,50,0.00,,,0.01,,2013-03-26 03:42:00,
2013-03-25 23:53:00,66.0,47.0,29.97,West,278,4.0,4.0,50,0.00,,,0.01,,2013-03-26 03:53:00,